RYR2116 LGIR-LGTS

Flight info

Callsign RYR2116
Flight time 1h 2m
Altitude 32000
Route EPALO M749 DIRMI UM749 SIGFO DCT BAMOS UL617 LEKPO
Aircraft B738/M-SDE2E3FGHIRWXY/LB1

Departure

Time 2026-04-30 20:37
Airport Heraklion International Nikos Kazantzakis Airport (LGIR)

Arrival

Time 2026-04-30 21:39
Airport Thessaloniki Macedonia International Airport (LGTS)
Time Latitude Longitude Altitude Speed Heading
2026-04-30 19:59 35.33791 25.17302 85 ft 0 kts 276°
2026-04-30 20:33 35.33797 25.17291 84 ft 5 kts 308°
2026-04-30 20:33 35.33830 25.17355 85 ft 7 kts 64°
2026-04-30 20:33 35.33878 25.17365 85 ft 8 kts
2026-04-30 20:34 35.33907 25.17556 88 ft 16 kts 92°
2026-04-30 20:34 35.33886 25.17896 96 ft 24 kts 94°
2026-04-30 20:35 35.33871 25.18122 101 ft 28 kts 95°
2026-04-30 20:35 35.33852 25.18360 105 ft 28 kts 96°
2026-04-30 20:35 35.33824 25.18815 114 ft 26 kts 94°
2026-04-30 20:36 35.33850 25.19004 117 ft 22 kts 57°
2026-04-30 20:36 35.33906 25.19013 114 ft 12 kts 280°
2026-04-30 20:36 35.33976 25.17713 94 ft 138 kts 271°
2026-04-30 20:37 35.34047 25.16378 295 ft 167 kts 276°
2026-04-30 20:37 35.34229 25.14942 903 ft 174 kts 281°
2026-04-30 20:37 35.34834 25.13722 1583 ft 178 kts 324°
2026-04-30 20:37 35.36102 25.13279 1842 ft 207 kts
2026-04-30 20:38 35.37512 25.13789 2335 ft 217 kts 23°
2026-04-30 20:38 35.38897 25.14566 2976 ft 220 kts 22°
2026-04-30 20:38 35.40379 25.14932 3560 ft 223 kts 349°
2026-04-30 20:39 35.43586 25.13583 4232 ft 259 kts 338°
2026-04-30 20:39 35.45287 25.12807 4936 ft 262 kts 338°
2026-04-30 20:39 35.47001 25.12031 5699 ft 263 kts 337°
2026-04-30 20:40 35.50450 25.10477 7196 ft 266 kts 337°
2026-04-30 20:40 35.52195 25.09693 7919 ft 268 kts 337°
2026-04-30 20:40 35.53955 25.08904 8681 ft 271 kts 337°
2026-04-30 20:41 35.57528 25.07305 10197 ft 276 kts 337°
2026-04-30 20:41 35.59389 25.06470 10509 ft 297 kts 337°
2026-04-30 20:41 35.61401 25.05566 10702 ft 318 kts 338°
2026-04-30 20:41 35.63522 25.04617 11181 ft 329 kts 338°
2026-04-30 20:42 35.65687 25.03649 11877 ft 332 kts 338°
2026-04-30 20:42 35.67867 25.02674 12628 ft 335 kts 338°
2026-04-30 20:42 35.72295 25.00685 14109 ft 343 kts 337°
2026-04-30 20:43 35.74541 24.99643 14797 ft 346 kts 336°
2026-04-30 20:43 35.76801 24.98580 15509 ft 350 kts 336°
2026-04-30 20:43 35.79084 24.97502 16211 ft 354 kts 336°
2026-04-30 20:44 35.83735 24.95309 17590 ft 362 kts 336°
2026-04-30 20:44 35.86101 24.94195 18267 ft 366 kts 336°
2026-04-30 20:44 35.90874 24.91948 19463 ft 373 kts 336°
2026-04-30 20:45 35.95757 24.89647 20667 ft 379 kts 336°
2026-04-30 20:45 35.98234 24.88479 21249 ft 383 kts 336°
2026-04-30 20:45 36.00731 24.87301 21826 ft 386 kts 336°
2026-04-30 20:46 36.08340 24.83703 23508 ft 395 kts 336°
2026-04-30 20:46 36.10918 24.82481 23974 ft 398 kts 336°
2026-04-30 20:47 36.16122 24.80009 24884 ft 403 kts 336°
2026-04-30 20:47 36.18750 24.78760 25326 ft 406 kts 336°
2026-04-30 20:48 36.24058 24.76233 26164 ft 412 kts 336°
2026-04-30 20:48 36.26740 24.74956 26612 ft 413 kts 336°
2026-04-30 20:48 36.29421 24.73679 27198 ft 411 kts 336°
2026-04-30 20:48 36.32082 24.72411 27827 ft 409 kts 336°
2026-04-30 20:49 36.34730 24.71148 28393 ft 407 kts 336°
2026-04-30 20:49 36.37376 24.69884 28904 ft 408 kts 336°
2026-04-30 20:49 36.40020 24.68620 29438 ft 407 kts 336°
2026-04-30 20:50 36.45285 24.66100 30491 ft 404 kts 336°
2026-04-30 20:50 36.47896 24.64848 31003 ft 401 kts 336°
2026-04-30 20:50 36.50485 24.63607 31538 ft 397 kts 335°
2026-04-30 20:50 36.53061 24.62371 31962 ft 397 kts 335°
2026-04-30 20:51 36.55655 24.61124 31968 ft 401 kts 335°
2026-04-30 20:51 36.63398 24.57400 31991 ft 395 kts 335°
2026-04-30 20:52 36.68505 24.54939 31996 ft 397 kts 335°
2026-04-30 20:53 36.76224 24.51118 31992 ft 398 kts 332°
2026-04-30 20:53 36.81193 24.48091 31984 ft 397 kts 330°
2026-04-30 20:54 36.88573 24.43432 31984 ft 396 kts 330°
2026-04-30 20:55 36.95951 24.38835 31987 ft 394 kts 330°
2026-04-30 20:55 37.00859 24.35788 31997 ft 393 kts 330°
2026-04-30 20:56 37.08186 24.31235 31989 ft 391 kts 330°
2026-04-30 20:57 37.14661 24.27203 31991 ft 390 kts 330°
2026-04-30 20:57 37.19516 24.24174 32000 ft 390 kts 330°
2026-04-30 20:58 37.26798 24.19622 32006 ft 390 kts 330°
2026-04-30 20:58 37.31659 24.16579 32006 ft 390 kts 330°
2026-04-30 20:59 37.38943 24.12010 32015 ft 390 kts 330°
2026-04-30 21:00 37.48641 24.05912 32023 ft 389 kts 330°
2026-04-30 21:01 37.55877 24.01351 32020 ft 386 kts 329°
2026-04-30 21:02 37.63055 23.96816 32029 ft 383 kts 329°
2026-04-30 21:02 37.67815 23.93802 32037 ft 382 kts 329°
2026-04-30 21:03 37.72537 23.90808 32052 ft 383 kts 329°
2026-04-30 21:03 37.77331 23.87764 32049 ft 384 kts 329°
2026-04-30 21:04 37.82108 23.84727 32055 ft 385 kts 329°
2026-04-30 21:04 37.89412 23.80520 32055 ft 392 kts 340°
2026-04-30 21:05 37.94859 23.79455 32052 ft 399 kts 349°
2026-04-30 21:05 38.00381 23.78740 32046 ft 399 kts 348°
2026-04-30 21:06 38.05896 23.77984 32038 ft 398 kts 348°
2026-04-30 21:06 38.11394 23.77202 32034 ft 397 kts 348°
2026-04-30 21:07 38.16882 23.76417 32048 ft 397 kts 348°
2026-04-30 21:07 38.22370 23.75626 32075 ft 397 kts 348°
2026-04-30 21:08 38.27853 23.74831 32083 ft 396 kts 348°
2026-04-30 21:08 38.33328 23.74036 32082 ft 396 kts 347°
2026-04-30 21:09 38.38791 23.73241 32085 ft 395 kts 347°
2026-04-30 21:09 38.44238 23.72448 32110 ft 393 kts 347°
2026-04-30 21:10 38.49567 23.71677 31809 ft 379 kts 347°
2026-04-30 21:10 38.52157 23.71301 31549 ft 373 kts 347°
2026-04-30 21:10 38.54736 23.70924 31149 ft 372 kts 347°
2026-04-30 21:11 38.57297 23.70548 30804 ft 369 kts 347°
2026-04-30 21:11 38.59846 23.70173 30457 ft 368 kts 347°
2026-04-30 21:11 38.62381 23.69801 30109 ft 366 kts 347°
2026-04-30 21:11 38.64901 23.69431 29700 ft 364 kts 347°
2026-04-30 21:12 38.67406 23.69064 29329 ft 361 kts 347°
2026-04-30 21:12 38.69889 23.68700 28962 ft 357 kts 347°
2026-04-30 21:12 38.72348 23.68340 28621 ft 354 kts 347°
2026-04-30 21:12 38.74793 23.67980 28250 ft 353 kts 347°
2026-04-30 21:13 38.77220 23.67622 27895 ft 350 kts 347°
2026-04-30 21:13 38.79631 23.67267 27552 ft 347 kts 347°
2026-04-30 21:13 38.82023 23.66915 27207 ft 345 kts 347°
2026-04-30 21:13 38.84398 23.66564 26869 ft 343 kts 346°
2026-04-30 21:14 38.86761 23.66216 26531 ft 341 kts 346°
2026-04-30 21:14 38.89109 23.65869 26220 ft 339 kts 346°
2026-04-30 21:14 38.91442 23.65524 25876 ft 337 kts 346°
2026-04-30 21:14 38.93770 23.65180 25538 ft 336 kts 346°
2026-04-30 21:15 38.96076 23.64731 25000 ft 338 kts 342°
2026-04-30 21:15 38.98382 23.64152 24618 ft 337 kts 341°
2026-04-30 21:15 39.00681 23.63541 24253 ft 337 kts 341°
2026-04-30 21:15 39.02940 23.62941 23925 ft 335 kts 341°
2026-04-30 21:16 39.05255 23.62332 23551 ft 335 kts 341°
2026-04-30 21:16 39.07501 23.61749 23191 ft 333 kts 341°
2026-04-30 21:16 39.09767 23.61165 22857 ft 331 kts 341°
2026-04-30 21:16 39.12018 23.60587 22508 ft 329 kts 341°
2026-04-30 21:17 39.14283 23.60007 22162 ft 327 kts 341°
2026-04-30 21:17 39.16503 23.59438 21834 ft 324 kts 341°
2026-04-30 21:17 39.18679 23.58880 21517 ft 322 kts 341°
2026-04-30 21:17 39.20864 23.58320 21198 ft 319 kts 341°
2026-04-30 21:18 39.23038 23.57762 20889 ft 317 kts 341°
2026-04-30 21:18 39.25196 23.57208 20571 ft 315 kts 341°
2026-04-30 21:18 39.27343 23.56657 20263 ft 313 kts 342°
2026-04-30 21:18 39.29471 23.56092 19956 ft 310 kts 339°
2026-04-30 21:19 39.31513 23.55255 19577 ft 307 kts 333°
2026-04-30 21:19 39.33501 23.54258 19237 ft 306 kts 332°
2026-04-30 21:19 39.35478 23.53251 18925 ft 305 kts 332°
2026-04-30 21:19 39.37455 23.52268 18622 ft 304 kts 333°
2026-04-30 21:20 39.39431 23.51303 18299 ft 303 kts 333°
2026-04-30 21:20 39.41403 23.50346 17957 ft 302 kts 333°
2026-04-30 21:20 39.43363 23.49396 17629 ft 301 kts 333°
2026-04-30 21:20 39.45318 23.48448 17293 ft 299 kts 333°
2026-04-30 21:21 39.47261 23.47505 16975 ft 297 kts 333°
2026-04-30 21:21 39.49192 23.46567 16659 ft 296 kts 333°
2026-04-30 21:21 39.53015 23.44708 16067 ft 292 kts 333°
2026-04-30 21:22 39.54912 23.43785 15789 ft 290 kts 334°
2026-04-30 21:22 39.60553 23.41033 14883 ft 287 kts 334°
2026-04-30 21:23 39.62422 23.40120 14586 ft 287 kts 334°
2026-04-30 21:23 39.64286 23.39212 14293 ft 286 kts 333°
2026-04-30 21:23 39.67992 23.37401 13682 ft 284 kts 333°
2026-04-30 21:24 39.69836 23.36498 13361 ft 283 kts 334°
2026-04-30 21:24 39.71646 23.35612 13076 ft 281 kts 333°
2026-04-30 21:24 39.73470 23.34720 12776 ft 279 kts 333°
2026-04-30 21:24 39.75288 23.33836 12457 ft 279 kts 332°
2026-04-30 21:25 39.78911 23.32081 11881 ft 276 kts 334°
2026-04-30 21:25 39.80709 23.31208 11581 ft 275 kts 334°
2026-04-30 21:25 39.82499 23.30339 11292 ft 274 kts 335°
2026-04-30 21:26 39.86060 23.28606 10703 ft 273 kts 336°
2026-04-30 21:26 39.87831 23.27746 10431 ft 271 kts 335°
2026-04-30 21:27 39.91294 23.26058 10114 ft 259 kts 335°
2026-04-30 21:27 39.92978 23.25234 9822 ft 258 kts 335°
2026-04-30 21:27 39.94656 23.24405 9549 ft 257 kts 335°
2026-04-30 21:28 39.97987 23.22767 9001 ft 255 kts 338°
2026-04-30 21:28 39.99644 23.21958 8749 ft 253 kts 336°
2026-04-30 21:28 40.02917 23.20340 8257 ft 249 kts 337°
2026-04-30 21:29 40.04534 23.19543 7994 ft 248 kts 337°
2026-04-30 21:29 40.09321 23.17179 7242 ft 243 kts 339°
2026-04-30 21:30 40.12464 23.15622 6754 ft 240 kts 339°
2026-04-30 21:31 40.16535 23.12161 5848 ft 244 kts 306°
2026-04-30 21:31 40.18390 23.08466 5436 ft 236 kts 312°
2026-04-30 21:32 40.21100 23.06609 5234 ft 215 kts 347°
2026-04-30 21:32 40.22539 23.06170 5128 ft 211 kts 347°
2026-04-30 21:32 40.23966 23.05739 5054 ft 211 kts 347°
2026-04-30 21:32 40.25383 23.05335 4968 ft 205 kts 349°
2026-04-30 21:33 40.26775 23.04972 4746 ft 205 kts 349°
2026-04-30 21:33 40.29522 23.04146 4321 ft 201 kts 347°
2026-04-30 21:33 40.30882 23.03717 4092 ft 201 kts 347°
2026-04-30 21:34 40.32231 23.03293 3904 ft 196 kts 348°
2026-04-30 21:34 40.34788 23.02491 3473 ft 180 kts 348°
2026-04-30 21:34 40.35979 23.02118 3245 ft 172 kts 348°
2026-04-30 21:35 40.37115 23.01762 3055 ft 163 kts 347°
2026-04-30 21:35 40.38189 23.01424 2867 ft 156 kts 347°
2026-04-30 21:35 40.39233 23.01096 2653 ft 152 kts 348°
2026-04-30 21:35 40.40249 23.00778 2425 ft 148 kts 348°
2026-04-30 21:36 40.41224 23.00472 2206 ft 139 kts 347°
2026-04-30 21:36 40.42129 23.00189 2006 ft 129 kts 347°
2026-04-30 21:37 40.44651 22.99397 1478 ft 120 kts 348°
2026-04-30 21:37 40.45468 22.99143 1272 ft 121 kts 348°
2026-04-30 21:37 40.46282 22.98899 1109 ft 120 kts 347°
2026-04-30 21:37 40.47102 22.98628 899 ft 123 kts 346°
2026-04-30 21:38 40.47947 22.98365 685 ft 127 kts 346°
2026-04-30 21:38 40.48804 22.98098 520 ft 125 kts 341°
2026-04-30 21:38 40.49632 22.97832 359 ft 122 kts 345°
2026-04-30 21:38 40.50478 22.97563 176 ft 127 kts 344°
2026-04-30 21:39 40.51336 22.97292 26 ft 120 kts 345°
2026-04-30 21:39 40.51897 22.97116 12 ft 31 kts 348°
2026-04-30 21:39 40.52103 22.97054 10 ft 30 kts 346°
2026-04-30 21:39 40.52271 22.97105 13 ft 22 kts 19°
2026-04-30 21:40 40.52350 22.97155 14 ft 12 kts 35°
2026-04-30 21:40 40.52368 22.97245 14 ft 9 kts 102°
2026-04-30 21:40 40.52370 22.97326 14 ft 9 kts 98°
2026-04-30 21:40 40.52387 22.97373 15 ft 5 kts 46°
2026-04-30 21:41 40.52415 22.97408 14 ft 5 kts 44°
2026-04-30 21:41 40.52428 22.97425 15 ft 0 kts 45°